Hourly Data Report for May 05, 2018

TORONTO CITY
ONTARIO
Current Station Operator: ECCC - MSC

43°40'00.000" N
79°24'00.000" W
112.50 m
6158355
71508
XTO

Download Data

Hourly Data (May 2018)
Hourly Data Report for May 5, 2018
TIME
LST
Temp Definition
°C
Dew Point Definition
°C
Rel Hum Definition
%
Precip. Amount Definition
mm

Wind Dir Definition
10's deg

Wind Spd Definition
km/h
Visibility Definition
km
Stn Press Definition
kPa
Hmdx Definition


Wind Chill Definition


Weather Definition


00:00 9.7 4.8 71 0.0 LegendMM LegendMM   100.17     LegendNANA
01:00 9.4 4.7 73 0.0 LegendMM LegendMM   100.18     LegendNANA
02:00 8.7 5.2 79 0.0 LegendMM LegendMM   100.18     LegendNANA
03:00 9.0 5.8 81 0.0 LegendMM LegendMM   100.22     LegendNANA
04:00 8.8 5.5 80 0.0 LegendMM LegendMM   100.22     LegendNANA
05:00 9.1 6.1 81 0.0 LegendMM LegendMM   100.24     LegendNANA
06:00 9.7 6.4 80 0.0 LegendMM LegendMM   100.28     LegendNANA
07:00 11.4 6.5 71 0.0 LegendMM LegendMM   100.30     LegendNANA
08:00 14.6 6.8 59 0.0 LegendMM LegendMM   100.31     LegendNANA
09:00 14.7 6.7 59 0.0 LegendMM LegendMM   100.30     LegendNANA
10:00 17.0 8.0 55 0.0 LegendMM LegendMM   100.25     LegendNANA
11:00 19.7 9.0 50 0.0 LegendMM LegendMM   100.21     LegendNANA
12:00 21.2 9.2 46 0.0 LegendMM LegendMM   100.15     LegendNANA
13:00 22.3 9.5 44 0.0 LegendMM LegendMM   100.11     LegendNANA
14:00 23.0 8.5 39 0.0 LegendMM LegendMM   100.06     LegendNANA
15:00 20.3 8.2 46 0.0 LegendMM LegendMM   100.09     LegendNANA
16:00 22.0 9.2 44 0.0 LegendMM LegendMM   100.03     LegendNANA
17:00 21.6 8.4 43 0.0 LegendMM LegendMM   100.06     LegendNANA
18:00 20.9 7.2 41 0.0 LegendMM LegendMM   100.08     LegendNANA
19:00 19.6 7.3 45 0.0 LegendMM LegendMM   100.12     LegendNANA
20:00 19.9 7.0 43 0.0 LegendMM LegendMM   100.18     LegendNANA
21:00 18.2 8.5 53 0.0 LegendMM LegendMM   100.24     LegendNANA
22:00 17.7 9.8 60 0.0 LegendMM LegendMM   100.21     LegendNANA
23:00 18.2 8.1 52 0.0 LegendMM LegendMM   100.18     LegendNANA

Notes on Data Quality.

Legend

  • E = Estimated
  • M = Missing
  • NA = Not Available*
  • [empty] = Indicates an unobserved value
Date modified: